Location: Haulchin
(50.3172°N, 3.4360°E)
Time: 14:39:30
(UTC+00:00)

Meteor 1-4 Rocket - Pass Details

Date: 23 May 2024
Orbit: 358 x 379 km, 81.2° (Epoch: 18 June)

Event Time Altitude Azimuth Distance (km) Brightness Sun altitude
Exits shadow 02:28:16 10° 260° (W) 1,333 4.4 -10.2°
Maximum altitude 02:29:52 14° 294° (WNW) 1,137 4.3 -10.1°
Drops below altitude 10° 02:31:32 10° 329° (NNW) 1,355 5.1 -9.9°
Sets 02:34:12 0° 356° (N) 2,213 6.7 -9.6°
